Weather History for Alexandria, Egypt

Change the Weather History Date:

Tuesday, January 28, 2014

  Actual Average Record
Temperature  
Mean Temperature 58 °F -  
Max Temperature 65 °F 63 °F 80 °F (2005)
Min Temperature 50 °F 48 °F 41 °F (1999)
Degree Days  
Heating Degree Days 8    
Growing Degree Days 8 (Base 50)    
Moisture  
Dew Point 49 °F    
Average Humidity 73    
Maximum Humidity 94    
Minimum Humidity 44    
Precipitation  
Precipitation 0.00 in 0.04 in - ()
Sea Level Pressure  
Sea Level Pressure 29.82 in    
Wind  
Wind Speed 12 mph ()    
Max Wind Speed 20 mph    
Max Gust Speed -    
Visibility 6.0 miles    
Events Rain    
Averages and records for this station are not official NWS values.
T = Trace of Precipitation, MM = Missing Value Source: Averaged Metar Reports

Daily Weather History Graph

Daily Weather History Graph

Search for Another Location

Airport:

Trip Planner

Search our weather history database for the weather conditions in past years. The results will help you decide how hot, cold, wet, or windy it might be!

Date:

Astronomy

Jan. 28, 2014 Rise Set
Actual Time 6:54 AM EET 5:31 PM EET
Civil Twilight 6:29 AM EET 5:57 PM EET
Nautical Twilight 6:00 AM EET 6:26 PM EET
Astronomical Twilight 5:31 AM EET 6:55 PM EET
Moon 4:14 AM EET (1/28) 3:02 PM EET (1/28)
Length of Visible Light 11h 28m
Length of Day
10h 36m
Waning Crescent, 9% of the Moon is Illuminated
Jan 28
Waning Crescent
Jan 30
New
Feb 6
First Quarter
Feb 15
Full
Feb 22
Last Quarter

Hourly Weather History & Observations

Time (EET) Temp. Dew Point Humidity Pressure Visibility Wind Dir Wind Speed Gust Speed Precip Events Conditions
12:00 AM 55.4 °F 48.2 °F 77% 29.68 in 6.2 mi West 13.8 mph - N/A   Scattered Clouds
1:00 AM 57.2 °F 50.0 °F 77% 29.68 in 6.2 mi West 16.1 mph - N/A   Scattered Clouds
2:00 AM 56 °F 52 °F 83% 29.70 in 6 mi West 18.4 mph - - Rain Light Rain
2:00 AM 55.4 °F 51.8 °F 88% 29.68 in 6.2 mi West 18.4 mph - N/A   Scattered Clouds
3:00 AM 55.4 °F 51.8 °F 88% 29.68 in 6.2 mi West 16.1 mph - N/A   Scattered Clouds
4:00 AM 53.6 °F 50.0 °F 88% 29.71 in 6.2 mi West 19.6 mph - N/A   Scattered Clouds
5:00 AM 56 °F 52 °F 83% 29.74 in 6 mi West 18.4 mph - -   Mostly Cloudy
5:00 AM - - N/A% 29.74 in 6.2 mi West 18.4 mph - N/A   Scattered Clouds
6:00 AM 57.2 °F 53.6 °F 88% 29.74 in 6.2 mi West 13.8 mph - N/A   Scattered Clouds
7:00 AM 55.4 °F 53.6 °F 94% 29.77 in 6.2 mi WSW 13.8 mph - N/A   Scattered Clouds
8:00 AM 55 °F 53 °F 92% 29.81 in 6 mi SSW 16.1 mph - -   Mostly Cloudy
8:00 AM 55.4 °F 53.6 °F 94% 29.80 in 3.7 mi SSW 16.1 mph - N/A   Mostly Cloudy
9:00 AM 55.4 °F 51.8 °F 88% 29.86 in - North - - N/A   Mostly Cloudy
10:00 AM 55.4 °F 51.8 °F 88% 29.83 in 6.2 mi West 16.1 mph - N/A   Mostly Cloudy
11:00 AM 60 °F 52 °F 69% 29.88 in 6 mi SW 16.1 mph - -   Mostly Cloudy
11:00 AM 60.8 °F 51.8 °F 72% 29.86 in 6.2 mi SW 16.1 mph - N/A   Mostly Cloudy
12:00 PM 62.6 °F 51.8 °F 68% 29.86 in - North - - N/A   Partly Cloudy
1:00 PM 64.4 °F 51.8 °F 64% 29.86 in 6.2 mi WSW 12.7 mph - N/A   Partly Cloudy
2:00 PM 65 °F 49 °F 45% 29.88 in 6 mi West 16.1 mph - -   Scattered Clouds
2:00 PM 64.4 °F 48.2 °F 56% 29.86 in 6.2 mi West 16.1 mph - N/A   Partly Cloudy
3:00 PM 64.4 °F 48.2 °F 56% 29.86 in 6.2 mi WSW 12.7 mph - N/A   Partly Cloudy
4:00 PM 64.4 °F 46.4 °F 52% 29.86 in - West 11.5 mph - N/A   Clear
5:00 PM 62 °F 46 °F 44% 29.87 in 6 mi WSW 8.1 mph - -  
5:00 PM 62.6 °F 46.4 °F 55% 29.86 in - WSW 8.1 mph - N/A   Clear
6:00 PM 57.2 °F 44.6 °F 63% 29.89 in - SW 5.8 mph - N/A   Clear
7:00 PM 55.4 °F 44.6 °F 67% 29.89 in - SW 3.5 mph - N/A   Clear
8:00 PM 54 °F 45 °F 63% 29.94 in 6 mi SSW 6.9 mph - -  
8:00 PM 53.6 °F 44.6 °F 72% 29.92 in - SSW 6.9 mph - N/A   Clear
9:00 PM 53.6 °F 44.6 °F 72% 29.92 in - SSW 2.3 mph - N/A   Clear
10:00 PM 50.0 °F 44.6 °F 82% 29.92 in - Calm Calm - N/A   Clear
11:00 PM 52 °F 43 °F 63% 29.93 in 6 mi Calm Calm - -  
11:00 PM 51.8 °F 42.8 °F 71% 29.92 in - Calm Calm - N/A   Clear